STARLINK-32731, 62493

Orbit data source: Space-Track

STARLINK-32731, 62493 is a payload satellite owned by SpaceX/Seattle (US) in LEO that was launched on Mon, 06 Jan 2025 UTC via an FALCON 9 launch vehicle from the Air Force Eastern Test Range (AFETR). Payload-class satellites include a variety of spacecraft equipped with specific instruments for various scientific and technological missions. These include communications satellites like Starlink; space stations such as the ISS; scientific satellites like the Hubble; Earth observation satellites from companies like Planet Labs, Umbra, and HawkEye 360; GPS; miniature CubeSats for education and research; and military/defense satellites.

Loading next visibility...
Identifier
62493, 2025-003G
Orbit
LEO
Country
Flag of USUS
Related business
Manufacturer
SpaceX/Seattle
Mission
Operational Commercial Communications
Bus & Motor
STARLINK V2M, Unknown motor
Mass
730 kg wet, ~700 kg dry
Launch date (UTC)
2025-01-06 (1 year ago)
Launch vehicle
FALCON 9
Launch site
Air Force Eastern Test Range (AFETR)
Object type
Payload
Rocket body
Debris
Shape & HBR
Box + 2 Pan, 17.7 m
Radar Cross Section
33.884 m², Large (>1 m²)

Expand to show TLE details & history
Last TLE update: 20 hours ago

TLE from 20 hours ago
0 STARLINK-32731
1 62493U 25003G   26171.06113039  .00021778  00000-0  79796-3 0  9990
2 62493  43.0021  71.2013 0001390 277.4656  82.6038 15.27605488 82328
Epoch: 2026-06-20T01:28Z
TLE epoch observation values (Epoch: 2026-06-20T01:28:01.665Z)
Latitude
-0.00001°
Longitude
140.91319°
Altitude
482.626 km
Speed
7.626 km/s
True Right ascension
04h 44m 48s
True Declination
0° 00' 00"
Sunlit
Object was in daylight at epoch
Visualization orbit readout
Latitude
Unknown
Longitude
Unknown
Altitude
Unknown
Speed
Unknown
Apparent Right ascension
Unknown
Apparent Declination
Unknown
Sunlit
N/A
Visualization observer readout
Local Sidereal Time
08:33:13
Azimuth
Unknown
Elevation
Unknown
Doppler factor
Unknown
Orbital elements
Apogee altitude
485.872 km
Perigee altitude
483.964 km
Semi-major axis
6,863.055 km
Eccentricity
0.00014
Inclination
43.0021°
RAAN
71.2013°
Arg. of periapsis
277.4656°
True anomaly
82.6196°
Mean anomaly
82.6038°
Eccentric anomaly
82.6117°
Mean motion
3.81739 °/min
Orbital period
94.31 mins
BSTAR
0.00079796
Loading maneuver chart data...
Computing Atmospheric mass density...
Loading historical data...
Loading historical data...
Loading historical data...
Loading historical data...
Loading historical data...
Loading historical data...
Loading historical data...

Documentation

Showing up to 5 results
|